User: anonymous   Login
Location: Malvern Link
(52.1333°N, 2.3000°W)
Time: 14:43:57
(UTC+00:00)
Language:

Cosmos 1634 Rocket - Orbit

View from above orbital plane
View from above orbital plane
View from above satellite
View from above satellite

Ground track
Ground track

The orbit data is extracted from the following two-line orbital elements,

1 15598U 85022B   20339.52470403  .00000057  00000-0  42473-4 0  9993
2 15598  82.9389 245.8087 0022231 164.1478   8.6908 13.76577686794696
Epoch (UTC): 04 December 2020 12:35:34
Eccentricity: 0.0022231
inclination: 82.9389°
perigee height: 960 km
apogee height: 992 km
right ascension of ascending node: 245.8087°
argument of perigee: 164.1478°
revolutions per day: 13.76577686
mean anomaly at epoch: 8.6908°
orbit number at epoch: 79469

The dashed part of the orbit path shows where the satellite is in the earth's shadow,  

DLR